Weather History for Pottstown, PA

Change the Weather History Date:

Saturday, October 13, 2012

  Actual Average (KRDG) Record (KRDG)
Temperature  
Mean Temperature 42 °F 54 °F  
Max Temperature 55 °F 65 °F 87 °F (1954)
Min Temperature 28 °F 44 °F 29 °F (1906)
Degree Days  
Heating Degree Days 24 11  
Month to date heating degree days 117  
Since 1 July heating degree days 196  
Cooling Degree Days 0 0  
Month to date cooling degree days 5  
Year to date cooling degree days 892  
Moisture  
Dew Point 29 °F    
Average Humidity 61    
Maximum Humidity 92    
Minimum Humidity 34    
Precipitation  
Precipitation 0.00 in 0.11 in 1.63 in (1895)
Month to date precipitation 1.68  
Year to date precipitation 34.98  
Sea Level Pressure  
Sea Level Pressure 30.45 in    
Wind  
Wind Speed 2 mph (SW)    
Max Wind Speed 8 mph    
Max Gust Speed -    
Visibility 10 miles    
Events      
T = Trace of Precipitation, MM = Missing Value Source: NWS Daily Summary

Daily Weather History Graph

Daily Weather History Graph

Search for Another Location

Airport:

Trip Planner

Search our weather history database for the weather conditions in past years. The results will help you decide how hot, cold, wet, or windy it might be!

Date:

Astronomy

Oct. 13, 2012 Rise Set
Actual Time 7:11 AM EDT 6:24 PM EDT
Civil Twilight 6:43 AM EDT 6:52 PM EDT
Nautical Twilight 6:12 AM EDT 7:23 PM EDT
Astronomical Twilight 5:40 AM EDT 7:54 PM EDT
Moon 4:58 AM EDT (10/13) 5:07 PM EDT (10/13)
Length of Visible Light 12h 08m
Length of Day
11h 13m
Waning Crescent, 5% of the Moon is Illuminated
Oct 13
Waning Crescent
Oct 15
New
Oct 21
First Quarter
Oct 29
Full
Nov 6
Last Quarter

Hourly Weather History & Observations

Time (EDT) Temp. Windchill Dew Point Humidity Pressure Visibility Wind Dir Wind Speed Gust Speed Precip Events Conditions
12:54 AM 39.9 °F 35.8 °F 26.1 °F 58% 30.46 in 10.0 mi North 5.8 mph - N/A   Clear
1:54 AM 37.0 °F - 28.0 °F 70% 30.48 in 10.0 mi Calm Calm - N/A   Clear
2:54 AM 32.0 °F - 28.0 °F 85% 30.46 in 10.0 mi Calm Calm - N/A   Clear
3:54 AM 30.9 °F - 27.0 °F 85% 30.48 in 10.0 mi Calm Calm - N/A   Clear
4:54 AM 30.9 °F - 27.0 °F 85% 30.49 in 10.0 mi Calm Calm - N/A   Clear
5:54 AM 30.0 °F - 27.0 °F 88% 30.51 in 10.0 mi Calm Calm - N/A   Clear
6:54 AM 28.9 °F - 27.0 °F 92% 30.52 in 10.0 mi Calm Calm - N/A   Clear
7:54 AM 30.9 °F - 28.0 °F 89% 30.53 in 10.0 mi Calm Calm - N/A   Clear
8:54 AM 37.9 °F - 30.9 °F 76% 30.53 in 10.0 mi Calm Calm - N/A   Clear
9:54 AM 45.0 °F - 28.0 °F 52% 30.54 in 10.0 mi Calm Calm - N/A   Clear
10:54 AM 46.0 °F 44.8 °F 27.0 °F 47% 30.53 in 10.0 mi Variable 3.5 mph - N/A   Clear
11:54 AM 50.0 °F - 28.0 °F 43% 30.52 in 10.0 mi Variable 4.6 mph - N/A   Clear
12:54 PM 51.1 °F - 27.0 °F 39% 30.48 in 10.0 mi Calm Calm - N/A   Clear
1:54 PM 53.1 °F - 27.0 °F 37% 30.44 in 10.0 mi Variable 5.8 mph - N/A   Clear
2:54 PM 54.0 °F - 26.1 °F 34% 30.40 in 10.0 mi Variable 6.9 mph - N/A   Clear
3:54 PM 55.9 °F - 28.0 °F 34% 30.39 in 10.0 mi SSW 8.1 mph - N/A   Clear
4:54 PM 55.0 °F - 27.0 °F 34% 30.39 in 10.0 mi SSW 8.1 mph - N/A   Clear
5:54 PM 54.0 °F - 28.0 °F 37% 30.38 in 10.0 mi South 4.6 mph - N/A   Clear
6:54 PM 50.0 °F - 30.0 °F 46% 30.37 in 10.0 mi Calm Calm - N/A   Clear
7:54 PM 45.0 °F - 34.0 °F 65% 30.36 in 10.0 mi Calm Calm - N/A   Clear
8:54 PM 45.0 °F - 33.1 °F 63% 30.36 in 10.0 mi Calm Calm - N/A   Clear
10:54 PM 43.0 °F - 37.0 °F 80% 30.33 in 10.0 mi Calm Calm - N/A   Clear